Location: Eymir
(36.7333°N, 29.7833°E)
Time: 05:14:57
(UTC+00:00)

CUTE 1.7 + AOD 2 - Pass Details

Date: 23 May 2026
Orbit: 531 x 545 km, 97.8° (Epoch: 8 June)

Event Time Altitude Azimuth Distance (km) Brightness Sun altitude
Rises 01:53:16 0° 25° (NNE) 2,679 ? -10.2°
Reaches altitude 10° 01:55:37 10° 37° (NE) 1,785 ? -9.8°
Maximum altitude 01:58:55 27° 97° (E) 1,038 ? -9.3°
Drops below altitude 10° 02:02:13 10° 157° (SSE) 1,776 ? -8.7°
Sets 02:04:33 0° 169° (S) 2,663 ? -8.4°
